EW5586 Weather Reports


time (UTC)temp
C
wind
direction
speed
KPH
gust
KPH
rain 1hr
cm
rain 24hr
cm
rain mn
cm
humidity
%
barometer
mb
20260506092330 -17 0.0 0.0 0.00 0.23 0.03 1009.3
20260506091741 -17 0.0 0.0 0.00 0.23 0.03 1009.2
20260506090634 -17 0.0 0.0 0.00 0.23 0.03 1009.5
20260506090055 -17 0.0 0.0 0.00 0.23 0.03 1009.5
20260506085546 -17 0.0 0.0 0.00 0.23 0.03 1009.9
20260506085044 -17 0.0 0.0 0.00 0.23 0.03 1009.9
20260506084543 -17 0.0 0.0 0.00 0.23 0.03 1009.9
20260506084041 -17 0.0 0.0 0.00 0.23 0.03 1010.0
20260506083539 -17 0.0 0.0 0.00 0.23 0.03 1010.0
20260506082947 -17 0.0 0.0 0.00 0.23 0.03 1010.0
20260506082441 -17 0.0 0.0 0.00 0.23 0.03 1009.8
20260506081846 -17 0.0 0.0 0.00 0.23 0.03 1009.8
20260506081337 7 0.0 0.0 0.00 0.23 0.03 92 1009.9
20260506080745 7 180 3.2 8.0 0.00 0.23 0.03 92 1009.8
20260506080222 7 180 3.2 9.7 0.00 0.23 0.03 92 1009.5
20260506073152 7 234 1.6 8.0 0.00 0.23 0.03 92 1009.2
20260506072646 7 208 3.2 8.0 0.00 0.23 0.03 92 1009.1
20260506072140 7 207 6.4 14.5 0.00 0.23 0.03 92 1009.0
20260506071128 7 219 8.0 16.1 0.03 0.23 0.03 92 1009.2
20260506070117 7 213 6.4 12.9 0.03 0.23 0.03 91 1009.2
20260506062027 7 158 14.5 22.5 0.03 0.23 0.03 93 1009.1
20260506061521 7 171 14.5 19.3 0.00 0.20 0.00 93 1009.3
20260506061015 7 0 14.5 22.5 0.00 0.20 0.00 93 1009.3
20260506060514 7 197 12.9 22.5 0.00 0.20 0.00 93 1009.3
20260506051011 7 221 14.5 19.3 0.00 0.20 0.00 92 1009.5
20260506044511 7 187 16.1 20.9 0.00 0.20 0.00 92 1009.4
20260506044012 7 195 16.1 22.5 0.00 0.20 0.00 93 1009.4
20260506043511 7 206 16.1 22.5 0.00 0.20 0.00 93 1009.4
20260506042511 7 208 17.7 24.1 0.00 0.20 0.00 93 1009.3
20260506042011 7 206 17.7 24.1 0.00 0.20 0.00 93 1009.1
20260506041011 7 210 17.7 20.9 0.00 0.20 0.00 93 1009.2
20260506040511 7 198 17.7 24.1 0.00 0.20 0.00 93 1009.1
20260506040011 7 217 17.7 24.1 0.00 0.20 0.00 93 1009.2
20260506035011 7 213 20.9 30.6 0.00 0.20 0.20 93 1009.4
20260506034511 7 0 20.9 30.6 0.00 0.20 0.20 93 1009.4
20260506034011 7 202 20.9 30.6 0.00 0.20 0.20 93 1009.4
20260506033511 8 218 17.7 30.6 0.00 0.20 0.20 93 1009.4
20260506033006 8 192 17.7 27.4 0.00 0.20 0.20 93 1009.4
20260506032505 8 195 19.3 27.4 0.00 0.20 0.20 93 1009.4
20260506032005 8 215 19.3 27.4 0.00 0.20 0.20 93 1009.4
20260506031505 8 223 19.3 27.4 0.00 0.20 0.20 93 1009.4
20260506031005 8 204 17.7 27.4 0.00 0.20 0.20 93 1009.3
20260506030505 8 221 17.7 22.5 0.00 0.20 0.20 93 1009.1
20260506030008 8 212 17.7 22.5 0.00 0.20 0.20 93 1009.0
20260506025505 8 215 16.1 22.5 0.00 0.20 0.20 93 1008.9
20260506025005 8 221 16.1 22.5 0.00 0.20 0.20 93 1008.9
20260506024505 8 211 16.1 22.5 0.00 0.20 0.20 93 1008.9
20260506024001 8 199 16.1 22.5 0.00 0.20 0.20 93 1009.0
20260506023501 8 0 16.1 24.1 0.03 0.20 0.20 93 1008.9
20260506023001 8 0 16.1 24.1 0.03 0.20 0.20 93 1008.9
20260506022502 8 188 14.5 19.3 0.03 0.20 0.20 93 1008.7
20260506022001 8 0 14.5 17.7 0.05 0.20 0.20 93 1008.6
20260506021502 8 0 14.5 19.3 0.05 0.20 0.20 93 1008.7
20260506021001 8 0 14.5 19.3 0.05 0.20 0.20 93 1008.5
20260506020501 8 186 14.5 17.7 0.05 0.20 0.20 93 1008.5
20260506020002 8 194 14.5 17.7 0.05 0.20 0.20 93 1008.5
20260506015501 8 0 14.5 17.7 0.08 0.20 0.20 93 1008.3
20260506015000 8 192 12.9 19.3 0.08 0.20 0.20 93 1008.3
20260506014501 8 220 12.9 19.3 0.10 0.20 0.20 93 1008.3
20260506014002 8 194 12.9 17.7 0.10 0.20 0.20 93 1008.2
20260506013001 8 202 12.9 17.7 0.08 0.18 0.18 92 1008.2
20260506011000 8 209 12.9 16.1 0.05 0.15 0.15 91 1008.4
20260506010501 8 225 12.9 17.7 0.08 0.15 0.15 91 1008.3
20260506010003 8 186 11.3 17.7 0.05 0.15 0.15 91 1008.3
20260506005502 8 208 9.7 17.7 0.05 0.13 0.13 91 1008.3
20260506005002 9 0 11.3 19.3 0.05 0.13 0.13 90 1008.2
20260506004500 9 232 14.5 19.3 0.05 0.10 0.10 90 1008.2
20260506004001 9 205 12.9 19.3 0.05 0.10 0.10 90 1008.1
20260506002958 9 225 9.7 16.1 0.08 0.10 0.10 88 1007.7
20260506001956 10 220 9.7 14.5 0.10 0.10 0.10 88 1007.6
20260506001456 10 215 9.7 14.5 0.10 0.10 0.10 87 1007.5
20260506000955 10 214 8.0 14.5 0.10 0.10 0.10 86 1007.4
20260506000448 10 210 6.4 12.9 0.08 0.08 0.08 86 1007.2
20260505235941 10 213 6.4 12.9 0.08 0.08 0.08 85 1007.0
20260505235435 10 225 8.0 12.9 0.08 0.08 0.08 84 1006.8
20260505234934 11 215 6.4 12.9 0.08 0.08 0.08 83 1006.7
20260505234434 11 207 4.8 14.5 0.05 0.05 0.05 81 1006.6
20260505233930 11 209 3.2 14.5 0.05 0.05 0.05 79 1006.6
20260505233430 11 239 1.6 12.9 0.05 0.05 0.05 78 1006.6
20260505232928 12 262 3.2 12.9 0.03 0.03 0.03 76 1006.5
20260505232428 12 227 3.2 16.1 0.03 0.03 0.03 74 1006.4
20260505231927 13 10 3.2 16.1 0.00 0.00 0.00 71 1006.2
20260505231428 13 244 3.2 17.7 0.00 0.00 0.00 68 1006.1
20260505230926 13 86 3.2 17.7 0.00 0.00 0.00 65 1006.0
20260505230426 14 315 3.2 12.9 0.00 0.00 0.00 62 1005.8
20260505225926 15 229 4.8 20.9 0.00 0.00 0.00 59 1005.6
20260505225424 15 351 4.8 20.9 0.00 0.00 0.00 56 1005.4
20260505224923 15 292 3.2 17.7 0.00 0.00 0.00 53 1005.4
20260505224424 15 244 3.2 16.1 0.00 0.00 0.00 53 1005.3
20260505223923 15 265 4.8 17.7 0.00 0.00 0.00 53 1005.1
20260505223417 15 208 4.8 17.7 0.00 0.00 0.00 53 1004.9
20260505222914 15 157 3.2 11.3 0.00 0.00 0.00 55 1004.7
20260505221900 16 255 4.8 17.7 0.00 0.00 0.00 57 1004.4
20260505221354 16 269 4.8 17.7 0.00 0.00 0.00 58 1004.4
20260505220847 16 244 3.2 11.3 0.00 0.00 0.00 57 1004.2
20260505220341 16 295 3.2 24.1 0.00 0.00 0.00 59 1004.4
20260505215834 16 214 3.2 24.1 0.00 0.00 0.00 60 1004.2
20260505215329 16 300 3.2 11.3 0.00 0.00 0.00 60 1004.1
20260505213809 16 0 4.8 16.1 0.00 0.00 0.00 61 1003.6
20260505213303 16 294 4.8 25.7 0.00 0.00 0.00 61 1003.3
20260505212758 16 236 4.8 25.7 0.00 0.00 0.00 62 1003.3
20260505212252 16 281 6.4 29.0 0.00 0.00 0.00 62 1003.5
20260505211240 17 316 4.8 24.1 0.00 0.00 0.00 62 1003.5
20260505210733 17 286 4.8 24.1 0.00 0.00 0.00 63 1003.3
20260505210227 17 117 6.4 30.6 0.00 0.00 0.00 62 1003.3
20260505205722 17 0 6.4 30.6 0.00 0.00 0.00 62 1003.2
20260505204203 19 127 6.4 27.4 0.00 0.00 0.00 64 1002.7
20260505203657 19 16 4.8 19.3 0.00 0.00 0.00 64 1002.5
20260505203151 19 244 3.2 16.1 0.00 0.00 0.00 64 1002.3
20260505202645 20 281 4.8 27.4 0.00 0.00 0.00 64 1002.2
20260505202140 20 213 6.4 27.4 0.00 0.00 0.00 62 1002.3
20260505201634 20 244 8.0 29.0 0.00 0.00 0.00 62 1002.2
20260505201127 20 188 9.7 29.0 0.00 0.00 0.00 62 1002.0
20260505200621 20 307 9.7 27.4 0.00 0.00 0.00 61 1002.1
20260505200115 20 234 8.0 27.4 0.00 0.00 0.00 60 1002.0
20260505195609 20 244 6.4 20.9 0.00 0.00 0.00 61 1001.9
20260505195106 20 216 9.7 35.4 0.00 0.00 0.00 60 1001.8
20260505194605 20 241 9.7 35.4 0.00 0.00 0.00 59 1001.9
20260505194106 21 0 9.7 29.0 0.00 0.00 0.00 58 1001.9
20260505193603 21 223 9.7 29.0 0.00 0.00 0.00 58 1001.9
20260505193101 21 250 11.3 33.8 0.00 0.00 0.00 57 1001.6
20260505192101 21 232 16.1 41.8 0.00 0.00 0.00 56 1001.6
20260505191600 21 219 12.9 41.8 0.00 0.00 0.00 55 1001.7
20260505191059 21 235 12.9 41.8 0.00 0.00 0.00 55 1001.5
20260505190602 21 287 12.9 43.5 0.00 0.00 0.00 54 1001.2
20260505184559 21 221 19.3 53.1 0.00 0.00 0.00 55 1001.3
20260505184100 21 214 19.3 49.9 0.00 0.00 0.00 58 1001.4
20260505183559 21 221 22.5 45.1 0.00 0.00 0.00 57 1001.1
20260505182559 21 235 24.1 51.5 0.00 0.00 0.00 56 1001.4
20260505182055 21 234 19.3 51.5 0.00 0.00 0.00 56 1001.3
20260505181556 20 225 16.1 37.0 0.00 0.00 0.00 58 1001.3
20260505181055 20 302 16.1 41.8 0.00 0.00 0.00 59 1001.3
20260505180556 20 225 16.1 41.8 0.00 0.00 0.00 59 1001.3
20260505180108 20 147 14.5 40.2 0.00 0.00 0.00 59 1001.1
20260505175556 20 196 16.1 40.2 0.00 0.00 0.00 62 1001.1
20260505175055 20 230 17.7 41.8 0.00 0.00 0.00 63 1001.3
20260505174054 19 231 17.7 41.8 0.00 0.00 0.00 65 1001.6
20260505173547 18 236 17.7 41.8 0.00 0.00 0.00 66 1001.6
20260505173041 18 203 17.7 40.2 0.00 0.00 0.00 66 1001.5
20260505172535 18 0 16.1 40.2 0.00 0.00 0.00 67 1001.6
20260505171523 17 251 25.7 41.8 0.00 0.00 0.00 68 1001.7
20260505170511 18 195 22.5 53.1 0.00 0.00 0.00 66 1001.7
20260505170006 18 193 22.5 53.1 0.00 0.00 0.00 66 1001.8
20260505165459 18 244 24.1 48.3 0.00 0.00 0.00 66 1001.5
20260505164953 18 188 24.1 43.5 0.00 0.00 0.00 66 1001.4
20260505163941 18 201 24.1 48.3 0.00 0.00 0.00 67 1001.5
20260505163435 18 220 24.1 48.3 0.00 0.00 0.00 67 1001.5
20260505162930 18 234 22.5 38.6 0.00 0.00 0.00 68 1001.3
20260505162423 18 175 20.9 45.1 0.00 0.00 0.00 66 1001.2
20260505161917 18 225 19.3 45.1 0.00 0.00 0.00 67 1001.0
20260505161411 18 217 17.7 35.4 0.00 0.00 0.00 67 1001.2
20260505160905 18 199 19.3 35.4 0.00 0.00 0.00 67 1001.2
20260505160359 18 240 20.9 33.8 0.00 0.00 0.00 66 1001.0
20260505153323 20 219 22.5 41.8 0.00 0.00 0.00 64 1001.1
20260505152817 19 198 25.7 45.1 0.00 0.00 0.00 65 1001.2
20260505152311 18 221 27.4 45.1 0.00 0.00 0.00 65 1001.1
20260505151805 18 201 25.7 40.2 0.00 0.00 0.00 67 1001.0
20260505151304 18 198 27.4 48.3 0.00 0.00 0.00 65 1000.9
20260505150806 18 231 25.7 48.3 0.00 0.00 0.00 66 1000.8
20260505150303 17 211 20.9 32.2 0.00 0.00 0.00 70 1000.8
20260505130254 13 222 16.1 25.7 0.00 0.00 0.00 83 1000.3
20260505124751 14 0 17.7 29.0 0.00 0.00 0.00 82 1000.4
20260505124251 14 221 17.7 29.0 0.00 0.00 0.00 83 1000.4
20260505123751 13 205 17.7 30.6 0.00 0.00 0.00 86 1000.5
20260505123250 12 219 16.1 30.6 0.00 0.00 0.00 86 1000.5
20260505122753 13 213 14.5 29.0 0.00 0.00 0.00 81 1000.6
20260505122251 14 0 16.1 29.0 0.00 0.00 0.00 79 1000.7
20260505121751 15 214 16.1 30.6 0.00 0.00 0.00 80 1000.6
20260505121251 15 207 16.1 30.6 0.00 0.00 0.00 81 1000.6
20260505120247 14 209 19.3 29.0 0.00 0.00 0.00 81 1000.6
20260505115747 14 218 19.3 29.0 0.00 0.00 0.00 83 1000.6
20260505115247 14 198 17.7 25.7 0.00 0.00 0.00 83 1000.5
20260505114747 14 229 16.1 25.7 0.00 0.00 0.00 83 1000.4
20260505113747 14 0 16.1 25.7 0.00 0.00 0.00 87 1000.5
20260505113248 13 211 16.1 25.7 0.00 0.00 0.00 88 1000.5
20260505112747 12 207 16.1 27.4 0.00 0.00 0.00 87 1000.6
20260505112248 12 181 14.5 27.4 0.00 0.00 0.00 89 1000.5
20260505111743 12 208 16.1 24.1 0.00 0.00 0.00 87 1000.5
20260505111244 13 200 16.1 24.1 0.00 0.00 0.00 89 1000.5
20260505110743 12 198 12.9 19.3 0.00 0.00 0.00 88 1000.4
20260505110243 12 213 12.9 17.7 0.00 0.00 0.00 87 1000.4
20260505102145 -17 0.0 0.0 0.00 0.00 0.00 1000.4
20260505101551 -17 0.0 0.0 0.00 0.00 0.00 1000.0
20260505101049 -17 0.0 0.0 0.00 0.00 0.00 999.9
20260505100546 -17 0.0 0.0 0.00 0.00 0.00 1000.1
20260505100047 -17 0.0 0.0 0.00 0.00 0.00 1000.1
20260505095541 -17 0.0 0.0 0.00 0.00 0.00 1000.1
20260505094949 -17 0.0 0.0 0.00 0.00 0.00 1000.1
20260505094446 -17 0.0 0.0 0.00 0.00 0.00 1000.3
20260505093945 -17 0.0 0.0 0.00 0.00 0.00 1000.2
20260505093435 -17 0.0 0.0 0.00 0.00 0.00 1000.3
20260505092844 -17 0.0 0.0 0.00 0.00 0.00 1000.2